Погода в Коме

Россия / Республика Бурятия     52°09′53″N   107°30′05″E
темп.,
°C
ветер,
м/с
пор.,
м/с
влажн.,
%
обл.,
%
осадки,
мм/ч
давл.,
гПа
погр.,
м
27 июля, вт
вт2723:00+15ссв22745 0.0 100820
02:00+14ссв11776 0.0 100812
05:00+13св11815 0.0 100710
08:00+19вюв12585 0.0 1007307
11:00+24юв444219 0.0 10061908
14:00+24в244198 0.0 10041725
17:00+22в354680 0.0 1004710
20:00+18ссв22656 0.0 100424
28 июля, ср
ср2823:00+15ссв227120 0.0 100520
02:00+14ссв117216 0.0 100511
05:00+14св117286 0.0 100511
08:00+20вюв11565 0.0 1005272
11:00+25юв22415 0.0 10031599
14:00+24в2245100 0.0 10021132
17:00+21всв225795 0.0 1002315
20:00+19ссв116845 0.0 100212
29 июля, чт
чт2923:00+16ссв217032 0.0 100313
02:00+16ссв116683 0.0 100311
05:00+16всв116790 0.0 100311
08:00+20вюв11584 0.0 1003264
11:00+26ююв11412 0.0 10021460
14:00+26зсз434075 0.0 10012377
17:00+20зюз346786 0.1 1004237
20:00+15зюз3588100 0.1 1006323
30 июля, пт
пт3023:00+12з379597 0.0 1008410
02:00+12зюз2595100 0.0 1009373
05:00+11зюз2596100 0.0 1010468
08:00+11зюз1398100 1.6 1011286
11:00+12зюз2396100 1.6 1012421
14:00+13зюз2394100 1.6 1012425
17:00+16зюз127882 0.0 1011642
20:00+15юз018289 0.0 101229
31 июля, сб
сб3123:00+13ссз1190100 0.0 101318
02:00+12ссз0093100 0.0 101314
05:00+12с1193100 0.0 101421
08:00+15юз018193 0.0 1014317
11:00+19юв116668 0.0 1014803
14:00+22св115768 0.1 10121246
17:00+22вюв1159100 0.0 1011954
20:00+18с1174100 0.1 101214